Regional Weather Roundup
Issued by NWS

Home | Current Version | Previous Version | Text Only | Print | Product List | Glossary On
Versions: 1 2 3 4 5 6 7 8 9 10 11 12 13 14 15 16 17 18 19 20 21 22 23 24 25 26 27 28 29 30 31 32 33 34 35 36 37 38 39 40 41 42 43 44 45 46 47 48 49 50
000
ASUS43 KIND 180409
RWRIN

WEATHER ROUNDUP FOR INDIANA
NATIONAL WEATHER SERVICE INDIANAPOLIS IN
1200 AM EDT WED OCT 18 2017

NOTE: "FAIR" INDICATES FEW OR NO CLOUDS BELOW 12,000 FEET WITH NO
SIGNIFICANT WEATHER AND/OR OBSTRUCTIONS TO VISIBILITY.

* - STATION DOES NOT REPORT WEATHER SUCH AS PRECIPITATION OR FOG.

+ - STATION NOT QUALITY CONTROLLED BY THE NATIONAL WEATHER SERVICE.
    USE DATA WITH CAUTION...ESPECIALLY DEWPOINT AND RELATIVE
    HUMIDITY OBSERVATIONS.

INZ001>003-010>013-019-020-180500-
NORTHWEST INDIANA

CITY           SKY/WX    TMP DP  RH WIND       PRES   REMARKS
GARY /AIRPORT/ CLEAR     57  37  47 S5        30.18F
KNOX *+        CLEAR     48  39  71 S6        30.21F
LA PORTE +     CLEAR     50  40  68 CALM      30.21S
MICHIGAN CITY+ CLEAR     52  39  62 S6        30.19F
MONTICELLO +   CLEAR     52  40  63 S7        30.22S
RENSSELAER +   CLEAR     50  34  53 S6        30.21S
VALPARAISO     CLEAR     53  41  63 S7        30.20F

$$

LMZ046-743>745-180500-
SOUTHERN LAKE MICHIGAN

STATION/POSITION TIME  TEMP    WIND        PRES    WAVE
                       AIR SEA DIR/SP/G            HT
                 (UTC) (F)     (DEG/KT/KT) (MB)    (FT)
BURNS HARBOR     0340   57     190/ 12/ 15 1022.4S
MICHIGAN CITY    0340   57     170/ 13/ 15   N/A
5NW MICH CITY    0350   58 57  200/ 14/ 16   N/A     2

$$

INZ004-005-014>016-021>024-180500-
NORTH CENTRAL INDIANA

CITY           SKY/WX    TMP DP  RH WIND       PRES   REMARKS
GOSHEN         CLEAR     51  39  63 S9        30.21S
LOGANSPORT +   CLEAR     45  37  76 S6        30.24S
PERU/GRISSOM   CLEAR     47  40  75 S6        30.22S
SOUTH BEND     CLEAR     51  41  68 SW7       30.21S
WARSAW +       CLEAR     50  41  71 CALM      30.23S

$$

INZ006>009-017-018-025>027-180500-
NORTHEAST INDIANA

CITY           SKY/WX    TMP DP  RH WIND       PRES   REMARKS
AUBURN +       CLEAR     48  41  76 S3        30.24S
FORT WAYNE     CLEAR     48  39  71 S5        30.25S
HUNTINGTON +   CLEAR     46  41  82 CALM      30.24S
KENDALLVILLE + CLEAR     51  41  69 SW7       30.23S

$$

INZ028-029-035-036-043>045-051>053-180500-
WEST CENTRAL INDIANA

CITY           SKY/WX    TMP DP  RH WIND       PRES   REMARKS
CRAWFORDSVL +  CLEAR     45  39  81 S5        30.24F
GREENCASTLE +  CLEAR     45  41  87 CALM      30.26S
LAFAYETTE      CLEAR     46  40  79 CALM      30.23S
TERRE HAUTE    CLEAR     43  40  89 CALM      30.26R

$$

INZ030>032-037>040-046>048-054>057-064-065-180500-
CENTRAL INDIANA

CITY           SKY/WX    TMP DP  RH WIND       PRES   REMARKS
CP ATTERBURY + CLEAR     39  37  93 CALM      30.27F
FISHERS *+     CLEAR     46  43  87 S3        30.25F
FRANKFORT +    CLEAR     49  42  75 CALM      30.25S
GREENWOOD *+   CLEAR     50  44  78 S5        30.26F
INDIANAPOLIS   CLEAR     49  39  68 S6        30.26S
-EAGLE CREEK   CLEAR     49  41  74 S3        30.25S
KOKOMO +       PTCLDY    50  40  68 S7        30.24S
MARION +       CLEAR     46  39  76 S5        30.25R
MT COMFORT *+  CLEAR     46  43  87 S6        30.26F
SHELBYVILLE    CLEAR     45  39  79 S6        30.26S
ZIONSVILLE +   CLEAR     45  40  82 S7        30.25F

$$

INZ033-034-041-042-049-050-058-059-180500-
EAST CENTRAL INDIANA

CITY           SKY/WX    TMP DP  RH WIND       PRES   REMARKS
MUNCIE         CLEAR     51  39  63 S5        30.25S
RICHMOND +     CLEAR     46  39  76 SW7       30.27F

$$

INZ060-061-067>069-081>083-085>088-180500-
SOUTHWEST INDIANA

CITY           SKY/WX    TMP DP  RH WIND       PRES   REMARKS
EVANSVILLE     CLEAR     49  44  83 CALM      30.26S
HUNTINGBURG +  CLEAR     47  43  86 CALM      30.27S
WASHINGTON +   CLEAR     43  41  93 CALM      30.26S

$$

INZ062-063-066-070>080-084-089>092-180500-
SOUTH CENTRAL AND SOUTHEAST INDIANA

CITY           SKY/WX    TMP DP  RH WIND       PRES   REMARKS
BEDFORD +      CLEAR     46  41  81 CALM      30.26S
BLOOMINGTON    CLEAR     44  39  82 CALM      30.26S
MADISON *+     CLEAR     43  41  93 CALM      30.30S
NORTH VERNON + PTCLDY    41  39  93 CALM      30.28S
SEYMOUR +      CLEAR     45  41  87 CALM      30.28S

$$





USA.gov is the U.S. government's official web portal to all federal, state and local government web resources and services.